Regional Weather Roundup
Issued by NWS

Home | Current Version | Previous Version | Text Only | Print | Product List | Glossary On
Versions: 1 2 3 4 5 6 7 8 9 10 11 12 13 14 15 16 17 18 19 20 21 22 23 24 25 26 27 28 29 30 31 32 33 34 35 36 37 38 39 40 41 42 43 44 45 46 47 48 49 50
000
ASUS43 KIND 010609
RWRIN

WEATHER ROUNDUP FOR INDIANA
NATIONAL WEATHER SERVICE INDIANAPOLIS IN
200 AM EDT FRI AUG 01 2014

NOTE: "FAIR" INDICATES FEW OR NO CLOUDS BELOW 12,000 FEET WITH NO
SIGNIFICANT WEATHER AND/OR OBSTRUCTIONS TO VISIBILITY.

* - STATION DOES NOT REPORT WEATHER SUCH AS PRECIPITATION OR FOG.

+ - STATION NOT QUALITY CONTROLLED BY THE NATIONAL WEATHER SERVICE.
    USE DATA WITH CAUTION...ESPECIALLY DEWPOINT AND RELATIVE
    HUMIDITY OBSERVATIONS.

INZ001>003-010>013-019-020-010700-
NORTHWEST INDIANA

CITY           SKY/WX    TMP DP  RH WIND       PRES   REMARKS
GARY /AIRPORT/ CLEAR     63  60  92 CALM      30.06S
KNOX *+        PTCLDY    62  58  90 S5        30.07R
LA PORTE +     PTCLDY    60  60 100 CALM      30.07S FOG
6HR MIN TEMP:  59; 6HR MAX TEMP:  68;

MICHIGAN CITY+ CLOUDY    63  61  94 CALM      30.06S
MONTICELLO +   CLEAR     64  61  91 CALM      30.07F
RENSSELAER +   CLEAR     61  61 100 S3        30.08S
VALPARAISO     PTCLDY    65  61  87 CALM      30.07S
6HR MIN TEMP:  64; 6HR MAX TEMP:  77;


$$

LMZ046-743>745-010700-
SOUTHERN LAKE MICHIGAN

STATION/POSITION TIME  TEMP WIND        PRES
                       AIR  DIR/SP/G
                 (UTC) (F)  (DEG/KT/KT) (MB)
MICHIGAN CITY    0600   70  180/  8/ 10   N/A

$$

INZ004-005-014>016-021>024-010700-
NORTH CENTRAL INDIANA

CITY           SKY/WX    TMP DP  RH WIND       PRES   REMARKS
GOSHEN         PTCLDY    65  60  84 SW3       30.07S
6HR MIN TEMP:  65; 6HR MAX TEMP:  75;

LOGANSPORT +   CLEAR     59  55  88 S6        30.08F
PERU/GRISSOM   CLEAR     61  61 100 S5        30.08F
6HR MIN TEMP:  61; 6HR MAX TEMP:  76;

ROCHESTER +    CLEAR     68  61  77 SW3       30.08F
SOUTH BEND     CLEAR     66  60  81 CALM      30.07S
6HR MIN TEMP:  65; 6HR MAX TEMP:  74;

WARSAW +       PTCLDY    64  61  88 CALM      30.08S

$$

INZ006>009-017-018-025>027-010700-
NORTHEAST INDIANA

CITY           SKY/WX    TMP DP  RH WIND       PRES   REMARKS
ANGOLA *+      MOCLDY    61  59  94 CALM      30.08S
AUBURN +       CLEAR     66  61  82 S3        30.08F
FORT WAYNE     PTCLDY    63  59  87 CALM      30.09S
6HR MIN TEMP:  63; 6HR MAX TEMP:  77;

HUNTINGTON +   CLEAR     62  60  93 CALM      30.08F
6HR MIN TEMP:  61; 6HR MAX TEMP:  76;


$$

INZ028-029-035-036-043>045-051>053-010700-
WEST CENTRAL INDIANA

CITY           SKY/WX    TMP DP  RH WIND       PRES   REMARKS
GREENCASTLE +  CLEAR     61  59  94 CALM      30.09F
LAFAYETTE      CLEAR     62  61  96 CALM      30.08S
6HR MIN TEMP:  61; 6HR MAX TEMP:  76;

TERRE HAUTE    CLEAR     61  59  93 CALM      30.07F
6HR MIN TEMP:  60; 6HR MAX TEMP:  79;


$$

INZ030>032-037>040-046>048-054>057-064-065-010700-
CENTRAL INDIANA

CITY           SKY/WX    TMP DP  RH WIND       PRES   REMARKS
CP ATTERBURY + FOG       61  59  94 CALM      30.10F VSB 1/2
GREENWOOD *+   CLEAR     64  64 100 CALM      30.10
INDIANAPOLIS   CLEAR     67  61  81 CALM      30.08F
6HR MIN TEMP:  66; 6HR MAX TEMP:  76;

-EAGLE CREEK   CLEAR     64  61  90 CALM      30.09F
6HR MIN TEMP:  63; 6HR MAX TEMP:  77;

KOKOMO *+      CLEAR     61  57  88 CALM      30.09S
MARION +       CLEAR     57  56  95 CALM      30.10F FOG
MT COMFORT *+  CLEAR     57 N/A N/A SE3       30.10F
SHELBYVILLE    CLEAR     63  60  90 E3        30.09F FOG
6HR MIN TEMP:  63; 6HR MAX TEMP:  77;

ZIONSVILLE +     N/A     60  57  90 CALM      30.10F FOG
6HR MIN TEMP:  60; 6HR MAX TEMP:  76;


$$

INZ033-034-041-042-049-050-058-059-010700-
EAST CENTRAL INDIANA

CITY           SKY/WX    TMP DP  RH WIND       PRES   REMARKS
MUNCIE         CLEAR     62  58  86 S3        30.10F
6HR MIN TEMP:  60; 6HR MAX TEMP:  75;


$$

INZ060-061-067>069-081>083-085>088-010700-
SOUTHWEST INDIANA

CITY           SKY/WX    TMP DP  RH WIND       PRES   REMARKS
EVANSVILLE     CLEAR     67  62  84 CALM      30.08F
6HR MIN TEMP:  66; 6HR MAX TEMP:  81;

WASHINGTON +   CLEAR     60  60  99 CALM      30.07F
6HR MIN TEMP:  60; 6HR MAX TEMP:  78;


$$

INZ062-063-066-070>080-084-089>092-010700-
SOUTH CENTRAL AND SOUTHEAST INDIANA

CITY           SKY/WX    TMP DP  RH WIND       PRES   REMARKS
BLOOMINGTON    CLEAR     60  58  92 CALM      30.09F FOG
6HR MIN TEMP:  60; 6HR MAX TEMP:  75;


$$



USA.gov is the U.S. government's official web portal to all federal, state and local government web resources and services.